Preview of NWS' New Version of Forecast
This preview is not operational and should not be used for support decisions.

Regional Weather Roundup (RWR)

Issued by Northern Indiana (IWX)

                            
000
ASUS43 KIWX 241610
RWRIWX

KIWX WEATHER ROUNDUP
NATIONAL WEATHER SERVICE NORTHERN INDIANA
1200 PM EDT WED APR 24 2019

NOTE: "FAIR" INDICATES FEW OR NO CLOUDS BELOW 12,000 FEET WITH NO
SIGNIFICANT WEATHER AND/OR OBSTRUCTIONS TO VISIBILITY. 

* THESE STATIONS ARE NOT UNDER NWS QUALITY CONTROL. THEY ALSO MAY NOT 
  REPORT WEATHER SUCH AS PRECIPITATION OR FOG. 

INZ001>027-241700-
NORTHERN INDIANA
  
CITY           SKY/WX    TMP DP  RH WIND       PRES   REMARKS
GARY*          PTSUNNY   39  36  87 E5        30.04S                  
VALPARAISO     FAIR      56  34  43 SE6       30.05R                  
MICHIGAN CITY* FAIR      57  32  38 E3        30.04R                  
LAPORTE*       FAIR      56  33  43 SE7       30.04S                  
KNOX*          FAIR      55  32  41 N6        30.05R                  
SOUTH BEND     FAIR      56  33  42 E8        30.05F                  
GOSHEN         FAIR      55  36  48 E6        30.04F                  
MONTICELLO*    PTSUNNY   49  38  66 E5        30.04F                  
ROCHESTER*     FAIR      55  36  47 SE5       30.05R                  
WARSAW*        FAIR      52  36  54 E7        30.04F                  
KENDALLVILLE*  FAIR      53  30  40 E5        30.05S                  
AUBURN*          N/A    N/A N/A N/A MISG        N/A                   
FORT WAYNE     PTSUNNY   54  40  59 NE7       30.04F                  
HUNTINGTON*    FAIR      52  37  57 E5        30.05S                  
PERU/GRISSOM   CLOUDY    51  42  71 E6        30.05R                  

$$
INZ028>050-241700-
CENTRAL INDIANA
  
CITY           SKY/WX    TMP DP  RH WIND       PRES   REMARKS
LAFAYETTE      FAIR      50  39  66 E8        30.04S                  
KOKOMO*        FAIR      50  39  66 SE8       30.06S                  
MUNCIE*        CLOUDY    52  39  61 E5        30.05R                  
INDIANAPOLIS   LGT RAIN  52  41  66 NE7       30.03S                  

$$
MIZ043>046-050>051-056>058-064>065-071>073-077>080-241700-
SOUTHWEST LOWER MICHIGAN
  
CITY           SKY/WX    TMP DP  RH WIND       PRES   REMARKS
BATTLE CREEK   FAIR      55  32  41 CALM      30.04F                  
BENTON HARBOR  FAIR      58  33  39 SE3       30.04S                  
COLDWATER*     FAIR      53  33  46 N3        30.04S                  
HILLSDALE*     FAIR      55  31  39 E3        30.02F                  
HOLLAND        FAIR      56  32  40 SE5       30.04S                  
GRAND RAPIDS   PTSUNNY   53  31  42 E6        30.03F                  
KALAMAZOO      FAIR      53  30  41 CALM      30.05S                  
STURGIS*       FAIR      56  34  43 CALM      30.04S                  
THREE RIVERS*  FAIR      53  33  47 CALM      30.06R                  

$$
OHZ001>008-015>018-024>025-241700-
NORTHWEST OHIO
  
CITY           SKY/WX    TMP DP  RH WIND       PRES   REMARKS
WAUSEON*       FAIR      54  39  58 SE3       30.03F                  
DEFIANCE       FAIR      53  37  54 CALM      30.05S                  
FINDLAY        FAIR      54  39  57 CALM      30.03S                  
OTTAWA*        FAIR      50  36  57 CALM      30.06S                  
TOLEDO EXPRESS FAIR      54  37  52 VRB3      30.03F                  
LIMA           FAIR      53  39  59 N3        30.03S                  

$$
AND FOR LAKE MICHIGAN COASTAL AND OPEN LAKE BUOY OBSERVATIONS
  
STATION/POSITION TEMP    WIND        PRES    VSBY  WAVE
                 AIR SEA DIR/SP/G                  HT/PER
                 (F)     (DEG/KT/KT) (MB)    (MI)  (FT/S)
CALUMET HARBOR    47      20/  3/  4 1016.6S
MICHIGAN CITY     54     350/  7/  7   N/A
BURNS HARBOR      47      20/  4/  4 1017.6F
SAINT JOSEPH      60     260/  4/  7 1017.9
MICHIGAN CITY     45 46   10/  6/  8   N/A           1/ 6

$$
&&